Hourly Weather Allieres

Today, 9 March, Tuesday

Time Temperature Precipitation Wind Pressure Humidity
00:00 -1°C° 0 mm 1 mps 639 mmHg 93%
01:00 -1°C° 0 mm 1 mps 639 mmHg 93%
02:00 -1°C° 0 mm 1 mps 639 mmHg 93%
03:00 -2°C° 0 mm 1 mps 638 mmHg 94%
04:00 -2°C° 0 mm 1 mps 638 mmHg 94%
05:00 -2°C° 0 mm 1 mps 639 mmHg 94%
06:00 -2°C° 0 mm 1 mps 639 mmHg 94%
07:00 -4°C° 0 mm 2 mps 639 mmHg 92%
08:00 -3°C° 0 mm 2 mps 639 mmHg 90%
09:00 -3°C° 0 mm 2 mps 639 mmHg 88%
10:00 -2°C° 0 mm 2 mps 639 mmHg 85%
11:00 -2°C° 0 mm 2 mps 639 mmHg 82%
12:00 -1°C° 0 mm 2 mps 639 mmHg 79%
13:00 -1°C° 0 mm 3 mps 639 mmHg 76%
14:00 -1°C° 0 mm 3 mps 639 mmHg 74%
15:00 0°C° 0 mm 3 mps 639 mmHg 71%
16:00 -1°C° 0 mm 3 mps 639 mmHg 74%
17:00 -2°C° 0 mm 3 mps 639 mmHg 78%
18:00 -3°C° 0 mm 2 mps 639 mmHg 81%
19:00 -3°C° 0 mm 2 mps 639 mmHg 83%
20:00 -4°C° 0 mm 2 mps 639 mmHg 85%
21:00 -4°C° 0 mm 2 mps 640 mmHg 87%
22:00 -5°C° 0 mm 2 mps 640 mmHg 89%
23:00 -5°C° 0 mm 2 mps 639 mmHg 90%

Tomorrow, 10 March, Wednesday

Time Temperature Precipitation Wind Pressure Humidity
00:00 -5°C° 0 mm 2 mps 639 mmHg 92%
01:00 -6°C° 0 mm 2 mps 640 mmHg 92%
02:00 -6°C° 0 mm 2 mps 640 mmHg 92%
03:00 -6°C° 0 mm 2 mps 640 mmHg 92%
04:00 -6°C° 0 mm 2 mps 640 mmHg 92%
05:00 -6°C° 0 mm 2 mps 640 mmHg 92%
06:00 -4°C° 0 mm 1 mps 641 mmHg 92%
07:00 -5°C° 0 mm 2 mps 641 mmHg 87%
08:00 -4°C° 0 mm 2 mps 641 mmHg 81%
09:00 -3°C° 0 mm 2 mps 642 mmHg 76%
10:00 -1°C° 0 mm 2 mps 642 mmHg 70%
11:00 +1°C° 0 mm 2 mps 643 mmHg 65%
12:00 +3°C° 0 mm 2 mps 643 mmHg 59%
13:00 +3°C° 0 mm 2 mps 643 mmHg 58%
14:00 +3°C° 0 mm 2 mps 642 mmHg 57%
15:00 +4°C° 0 mm 2 mps 642 mmHg 55%
16:00 +3°C° 0 mm 1 mps 642 mmHg 63%
17:00 +1°C° 0 mm 1 mps 642 mmHg 70%
18:00 0°C° 0 mm 1 mps 641 mmHg 78%
19:00 -1°C° 0 mm 1 mps 641 mmHg 74%
20:00 -1°C° 0 mm 1 mps 642 mmHg 71%
21:00 -1°C° 0 mm 1 mps 642 mmHg 68%
22:00 -1°C° 0 mm 1 mps 642 mmHg 64%
23:00 -1°C° 0 mm 1 mps 642 mmHg 61%

Day after tomorrow, 11 March, Thursday

Time Temperature Precipitation Wind Pressure Humidity
00:00 -1°C° 0 mm 1 mps 642 mmHg 57%
01:00 -1°C° 0 mm 1 mps 642 mmHg 55%
02:00 0°C° 0 mm 1 mps 642 mmHg 53%
03:00 0°C° 0 mm 1 mps 641 mmHg 50%
04:00 0°C° 0 mm 1 mps 642 mmHg 49%
05:00 +1°C° 0 mm 1 mps 642 mmHg 48%
06:00 +1°C° 0 mm 1 mps 643 mmHg 47%
07:00 +2°C° 0.1 mm 1 mps 643 mmHg 53%
08:00 +2°C° 0.1 mm 1 mps 643 mmHg 60%
09:00 +2°C° 0.1 mm 1 mps 643 mmHg 67%
10:00 +4°C° 0 mm 1 mps 643 mmHg 67%
11:00 +5°C° 0 mm 1 mps 644 mmHg 67%
12:00 +7°C° 0 mm 1 mps 644 mmHg 68%
13:00 +7°C° 0 mm 2 mps 644 mmHg 68%
14:00 +7°C° 0 mm 2 mps 644 mmHg 69%
15:00 +8°C° 0 mm 2 mps 643 mmHg 69%
16:00 +7°C° 0.1 mm 2 mps 643 mmHg 73%
17:00 +5°C° 0.1 mm 2 mps 643 mmHg 77%
18:00 +5°C° 0.1 mm 1 mps 643 mmHg 81%
19:00 +5°C° 0.4 mm 1 mps 643 mmHg 84%
20:00 +5°C° 0.4 mm 1 mps 643 mmHg 86%
21:00 +5°C° 0.4 mm 1 mps 643 mmHg 88%
22:00 +4°C° 0.7 mm 1 mps 643 mmHg 90%
23:00 +4°C° 0.7 mm 1 mps 643 mmHg 92%

12 March, Friday

Time Temperature Precipitation Wind Pressure Humidity
00:00 +4°C° 0.7 mm 1 mps 643 mmHg 94%
01:00 +3°C° 0.9 mm 1 mps 643 mmHg 94%
02:00 +3°C° 0.9 mm 1 mps 642 mmHg 95%
03:00 +3°C° 0.9 mm 1 mps 642 mmHg 95%
04:00 +3°C° 0.6 mm 1 mps 642 mmHg 95%
05:00 +2°C° 0.6 mm 1 mps 642 mmHg 94%
06:00 +2°C° 0.6 mm 1 mps 641 mmHg 94%
07:00 +3°C° 0.4 mm 1 mps 642 mmHg 90%
08:00 +3°C° 0.4 mm 1 mps 642 mmHg 85%
09:00 +4°C° 0.4 mm 1 mps 642 mmHg 81%
10:00 +4°C° 0.1 mm 1 mps 642 mmHg 76%
11:00 +5°C° 0.1 mm 1 mps 642 mmHg 70%
12:00 +6°C° 0.1 mm 1 mps 642 mmHg 65%
13:00 +6°C° 0.2 mm 1 mps 642 mmHg 65%
14:00 +6°C° 0.2 mm 1 mps 642 mmHg 64%
15:00 +5°C° 0.2 mm 1 mps 641 mmHg 64%
16:00 +4°C° 0.2 mm 1 mps 641 mmHg 70%
17:00 +3°C° 0.2 mm 1 mps 641 mmHg 77%
18:00 +1°C° 0.2 mm 1 mps 640 mmHg 83%
19:00 +1°C° 0.1 mm 1 mps 641 mmHg 84%
20:00 +1°C° 0.1 mm 1 mps 641 mmHg 84%
21:00 +1°C° 0.1 mm 1 mps 642 mmHg 85%
22:00 0°C° 0.1 mm 1 mps 642 mmHg 86%
23:00 0°C° 0.1 mm 1 mps 642 mmHg 88%

13 March, Saturday

Time Temperature Precipitation Wind Pressure Humidity
00:00 0°C° 0.1 mm 1 mps 641 mmHg 90%
01:00 0°C° 0 mm 1 mps 641 mmHg 90%
02:00 -1°C° 0 mm 1 mps 641 mmHg 91%
03:00 -1°C° 0 mm 1 mps 641 mmHg 91%
04:00 -1°C° 0 mm 1 mps 641 mmHg 91%
05:00 -2°C° 0 mm 1 mps 641 mmHg 91%
06:00 -2°C° 0 mm 1 mps 640 mmHg 91%
07:00 0°C° 0 mm 1 mps 641 mmHg 84%
08:00 +2°C° 0 mm 1 mps 642 mmHg 76%
09:00 +3°C° 0 mm 1 mps 642 mmHg 69%
10:00 +4°C° 0 mm 1 mps 642 mmHg 65%
11:00 +5°C° 0 mm 1 mps 642 mmHg 61%
12:00 +6°C° 0 mm 1 mps 642 mmHg 57%
13:00 +6°C° 0 mm 1 mps 642 mmHg 57%
14:00 +6°C° 0 mm 1 mps 641 mmHg 57%
15:00 +6°C° 0 mm 1 mps 641 mmHg 56%
16:00 +5°C° 0 mm 1 mps 641 mmHg 63%
17:00 +3°C° 0 mm 1 mps 640 mmHg 70%
18:00 +2°C° 0 mm 1 mps 640 mmHg 76%
19:00 +1°C° 0 mm 1 mps 640 mmHg 77%
20:00 +1°C° 0 mm 1 mps 640 mmHg 77%
21:00 +1°C° 0 mm 1 mps 640 mmHg 78%
22:00 +1°C° 0.1 mm 1 mps 639 mmHg 80%
23:00 -1°C° 0.1 mm 2 mps 639 mmHg 83%

14 March, Sunday

Time Temperature Precipitation Wind Pressure Humidity
00:00 -1°C° 0.1 mm 2 mps 639 mmHg 86%
01:00 -1°C° 0.8 mm 2 mps 639 mmHg 89%
02:00 0°C° 0.8 mm 1 mps 638 mmHg 92%
03:00 0°C° 0.8 mm 1 mps 638 mmHg 96%
04:00 -3°C° 2.1 mm 2 mps 638 mmHg 96%
05:00 -3°C° 2.1 mm 2 mps 638 mmHg 96%
06:00 -4°C° 2.1 mm 2 mps 638 mmHg 96%
07:00 -5°C° 0.3 mm 3 mps 638 mmHg 91%
08:00 -4°C° 0.3 mm 3 mps 638 mmHg 86%
09:00 -4°C° 0.3 mm 3 mps 639 mmHg 82%
10:00 -4°C° 0.3 mm 3 mps 639 mmHg 80%
11:00 -3°C° 0.3 mm 4 mps 639 mmHg 79%
12:00 -3°C° 0.3 mm 4 mps 639 mmHg 78%
13:00 -3°C° 0.5 mm 4 mps 639 mmHg 77%
14:00 -3°C° 0.5 mm 4 mps 639 mmHg 76%
15:00 -3°C° 0.5 mm 4 mps 639 mmHg 76%
16:00 -4°C° 0.3 mm 3 mps 639 mmHg 81%
17:00 -5°C° 0.3 mm 3 mps 640 mmHg 86%
18:00 -4°C° 0.3 mm 2 mps 640 mmHg 91%
19:00 -4°C° 0.3 mm 2 mps 641 mmHg 92%
20:00 -4°C° 0.3 mm 2 mps 641 mmHg 93%
21:00 -5°C° 0.3 mm 2 mps 642 mmHg 94%
22:00 -4°C° 0.2 mm 2 mps 642 mmHg 95%
23:00 -5°C° 0.2 mm 3 mps 642 mmHg 95%
Show more